Regional Weather Roundup
Issued by NWS Green Bay, WI

Home | Current Version | Previous Version | Graphics & Text | Print | Product List | Glossary Off
Versions: 1 2 3 4 5 6 7 8 9 10 11 12 13 14 15 16 17 18 19 20 21 22 23 24 25 26 27 28 29 30 31 32 33 34 35 36 37 38 39 40 41 42 43 44 45 46 47 48 49 50

000
ASUS43 KGRB 021710
RWRGRB

NORTH-CENTRAL AND NORTHEAST WISCONSIN REGIONAL WEATHER ROUNDUP
NATIONAL WEATHER SERVICE GREEN BAY WI
1200 PM CDT THU OCT 02 2014

WIZ005-009-010>012-018-019-021800-
NORTH CENTRAL WISCONSIN

CITY           SKY/WX    TMP DP  RH WIND       PRES   REMARKS
IRONWOOD       NOT AVBL
MANITOWISH WTR CLOUDY    57  57  97 CALM      29.83F FOG
ARBOR VITAE    CLOUDY    57  55  92 E3        29.83F FOG
EAGLE RIVER    CLOUDY    57  54  89 CALM      29.83F FOG
LAND O LAKES   CLOUDY    57  55  92 CALM      29.85S FOG
RHINELANDER    CLOUDY    58  54  86 CALM      29.84F
PHILLIPS       CLOUDY    59  54  83 CALM      29.82F
ANTIGO         CLOUDY    60  56  87 CALM      29.83F FOG
TOMAHAWK       CLOUDY    60  55  82 CALM      29.83F
MERRILL        CLOUDY    62  57  82 CALM      29.83S
$$

WIZ013-073-021800-
NORTHEAST WISCONSIN

CITY           SKY/WX    TMP DP  RH WIND       PRES   REMARKS
IRON MOUNTAIN  CLOUDY    60  55  83 SE3       29.83F HAZE
MARINETTE      NOT AVBL
OCONTO         CLOUDY    62  61  96 SE5       29.83F
$$

WIZ017-030-035>037-045-021800-
CENTRAL WISCONSIN

CITY           SKY/WX    TMP DP  RH WIND       PRES   REMARKS
MEDFORD        MOSUNNY   62  57  83 S6        29.83S HAZE
WAUSAU         CLOUDY    63  56  78 CALM      29.81F
MOSINEE        CLOUDY    63  57  82 CALM      29.83F
MARSHFIELD     CLOUDY    65  58  78 CALM      29.82F
WISC RAPIDS    PTSUNNY   67  59  75 CALM      29.82F
STEVENS POINT  CLOUDY    62  57  83 CALM      29.82F
WAUPACA        CLOUDY    68  59  72 CALM      29.82S
SHAWANO        CLOUDY    64  59  82 E3        29.83S
CLINTONVILLE   CLOUDY    63  57  82 CALM      29.83R
$$

WIZ038-039-048-051-021800-
FOX VALLEY

CITY           SKY/WX    TMP DP  RH WIND       PRES   REMARKS
NWS GREEN BAY  PTSUNNY   66  60  81 CALM      29.82F
APPLETON       CLOUDY    64  57  77 VRB6      29.82F HAZE
OSHKOSH        CLOUDY    64  60  87 CALM      29.81F FOG
FOND DU LAC    CLOUDY    65  59  81 S6        29.82F
$$

WIZ022-050-052-021800-
EAST CENTRAL WISCONSIN

CITY           SKY/WX    TMP DP  RH WIND       PRES   REMARKS
STURGEON BAY   NOT AVBL
MANITOWOC      NOT AVBL
SHEBOYGAN      NOT AVBL
$$

LMZ563-521-522-541>543-021800-
LAKESHORE

STATION/POSITION TIME  TEMP    WIND        PRES    VSBY  WAVE
                       AIR SEA DIR/SP/G                  HT/PER
                 (UTC) (F)     (DEG/KT/KT) (MB)    (MI)  (FT/S)
SHEBOYGAN LKSHOR 1700   58 56  150/  7/  8 1010.1F
KEWAUNEE LKSHORE 1700   56     220/  1/  2 1009.8R
NORTHPORT PIER   1700   57     150/  9/ 12 1011.2F
N MID LAKE BUOY  1700   58 58  150/ 10/ 12 1011.3F         2/ 5
S GREEN BAY BUOY 1700   61     VRB  6/  6  1011.1F
CHAMBERS ISLAND  1700   59     170/  3/ 10 1010.8F
MENOMINEE LKSHOR 1700   59     150/  6/  7 1011.1F
$$


USA.gov is the U.S. government's official web portal to all federal, state and local government web resources and services.